This demonstration page uses our WeatherBlox Daily Observations layout. Learn more.

Left ArrowRight Arrow

39.29038, -76.61219

Hourly Observations for June 2, 2020

Temp ( °F °C ) Dew Point ( °F °C ) Humidity (%) Winds ( mph kmh ) Pressure ( in mb ) Visibility ( mi km ) Precip ( " mm )
12:54 am 00:54 undefined 63 17.2 43 6.1 48 48 undefined N/A 30.16 1022 N/A 0.00 0.00
1:54 am 01:54 undefined 62 16.7 43 6.1 50 50 undefined N/A 30.15 1021 N/A 0.00 0.00
2:54 am 02:54 undefined 61 16.1 44 6.7 54 54 undefined N/A 30.14 1021 N/A 0.00 0.00
3:54 am 03:54 undefined 60 15.6 45 7.2 58 58 undefined N/A 30.13 1020 N/A 0.00 0.00
4:54 am 04:54 undefined 61 16.1 44 6.7 54 54 undefined N/A 30.13 1020 N/A 0.00 0.00
5:54 am 05:54 undefined 61 16.1 44 6.7 54 54 undefined N/A 30.13 1020 N/A 0.00 0.00
6:54 am 06:54 undefined 61 16.1 45 7.2 56 56 undefined N/A 30.11 1020 N/A 0.00 0.00
7:54 am 07:54 undefined 62 16.7 46 7.8 56 56 undefined N/A 30.11 1020 N/A 0.00 0.00
8:54 am 08:54 undefined 63 17.2 47 8.3 56 56 undefined N/A 30.12 1020 N/A 0.00 0.00
9:54 am 09:54 undefined 65 18.3 47 8.3 52 52 undefined N/A 30.10 1019 N/A 0.00 0.00
10:54 am 10:54 undefined 68 20 46 7.8 45 45 undefined N/A 30.08 1019 N/A 0.00 0.00
11:54 am 11:54 undefined 68 20 43 6.1 40 40 undefined N/A 30.07 1018 N/A 0.00 0.00
12:54 pm 12:54 undefined 69 20.6 43 6.1 39 39 undefined N/A 30.05 1018 N/A 0.00 0.00
1:54 pm 13:54 undefined 71 21.7 44 6.7 38 38 undefined N/A 30.01 1016 N/A 0.00 0.00
2:54 pm 14:54 undefined 72 22.2 45 7.2 38 38 undefined N/A 29.98 1015 N/A 0.00 0.00
3:54 pm 15:54 undefined 72 22.2 48 8.9 43 43 undefined N/A 29.95 1014 N/A 0.00 0.00
4:54 pm 16:54 undefined 76 24.4 48 8.9 37 37 undefined N/A 29.91 1013 N/A 0.00 0.00
5:54 pm 17:54 undefined 76 24.4 46 7.8 35 35 undefined N/A 29.89 1012 N/A 0.00 0.00
6:54 pm 18:54 undefined 75 23.9 48 8.9 39 39 undefined N/A 29.87 1012 N/A 0.00 0.00
7:54 pm 19:54 undefined 75 23.9 50 10 41 41 undefined N/A 29.87 1012 N/A 0.00 0.00
8:54 pm 20:54 undefined 73 22.8 52 11.1 48 48 undefined N/A 29.87 1012 N/A 0.00 0.00
9:54 pm 21:54 undefined 69 20.6 58 14.4 68 68 undefined N/A 29.87 1012 N/A 0.00 0.00
10:54 pm 22:54 undefined 69 20.6 57 13.9 66 66 undefined N/A 29.85 1011 N/A 0.00 0.00
11:54 pm 23:54 undefined 68 20 55 12.8 63 63 undefined N/A 29.83 1010 N/A 0.00 0.00

Powered by AerisWeather